Home   Weather   Las Palmas   Past weeks

Flag for Spain Past Weather in Las Palmas, Canary Islands, Spain — Yesterday and Last 2 Weeks

Now
82 °F

Clear.


Feels Like: 81 °F
Forecast: 74 / 82 °F
Wind: 25 mph from Northeast

Location: Las Palmas De Gran Canaria / Gando

Current Time: Jun 24, 2017 at 11:23:35 pm

Latest Report: Jun 24, 2017 at 10:30 pm


Visibility: 10 mi

Pressure: 29.95 "Hg

Humidity: 37%

Dew Point: 54 °F

Location of Las PalmasLocation

Past Weather in Las Palmas — Graph

°F

Las Palmas Temperature Yesterday

Maximum temperature yesterday: 88 °F (at 4:30 pm)
Minimum temperature yesterday: 73 °F (at 2:30 am)
Average temperature yesterday: 79 °F

High & Low Weather Summary for the Past Weeks

 TemperatureHumidityPressure
High95 °F (Jun 24, 3:30 pm)83% (Jun 16, 1:00 am)30.09 "Hg (Jun 16, 1:00 am)
Low66 °F (Jun 20, 6:30 am)30% (Jun 24, 3:30 pm)29.89 "Hg (Jun 17, 5:00 pm)
Average74 °F66%29.98 "Hg
* Reported Jun 9 10:00 pm — Jun 24 10:00 pm, Las Palmas. Weather by CustomWeather, © 2017

Note: Actual official high and low records may vary slightly from our data, if they occured in-between our weather recording intervals... More about our weather records

Advertising

Las Palmas Weather History for the Previous 24 Hours

Scroll right to see more
 ConditionsComfort  
Time TempWeatherWind HumidityBarometerVisibility
10:00 pm
Sat, Jun 24
81 °FClear.25 mph42%29.92 "Hg10 mi
9:30 pm81 °FClear.25 mph42%29.92 "Hg10 mi
9:00 pm82 °FSunny.24 mph42%29.92 "Hg10 mi
8:30 pm84 °FPassing clouds.23 mph37%29.89 "HgN/A
8:00 pm84 °FSunny.23 mph40%29.89 "Hg10 mi
7:30 pm86 °FSunny.26 mph35%29.89 "Hg10 mi
7:00 pm86 °FSunny.25 mph38%29.89 "Hg10 mi
6:30 pm90 °FSunny.24 mph33%29.89 "Hg10 mi
6:00 pm90 °FSunny.26 mph33%29.89 "Hg10 mi
5:30 pm91 °FSunny.26 mph32%29.89 "Hg10 mi
5:00 pm90 °FSunny.26 mph38%29.92 "Hg10 mi
4:30 pm90 °FSunny.29 mph38%29.92 "Hg10 mi
4:00 pm90 °FSunny.28 mph43%29.92 "Hg10 mi
3:30 pm95 °FSunny.25 mph30%29.92 "Hg10 mi
3:00 pm93 °FSunny.24 mph34%29.92 "Hg10 mi
2:30 pm91 °FSunny.25 mph38%29.92 "Hg10 mi
2:00 pm90 °FSunny.26 mph41%29.92 "Hg10 mi
1:00 pm91 °FSunny.22 mph41%29.95 "Hg10 mi
12:30 pm90 °FSunny.22 mph43%29.95 "Hg10 mi
12:00 pm88 °FSunny.23 mph46%29.95 "Hg10 mi
11:30 am86 °FSunny.22 mph52%29.95 "Hg10 mi
11:00 am84 °FSunny.23 mph58%29.95 "Hg10 mi
10:30 am81 °FSunny.23 mph66%29.98 "Hg10 mi
10:00 am82 °FSunny.18 mph58%29.95 "Hg10 mi
9:30 am81 °FSunny.18 mph62%29.95 "Hg10 mi
9:00 am79 °FSunny.18 mph65%29.98 "Hg10 mi
8:30 am77 °FSunny.17 mph69%29.98 "Hg10 mi
8:00 am75 °FSunny.16 mph69%29.95 "Hg10 mi
7:30 am75 °FSunny.15 mph74%29.95 "Hg10 mi
7:00 am73 °FClear.17 mph83%29.95 "Hg10 mi
6:30 am73 °FClear.13 mph78%29.95 "Hg10 mi
6:00 am73 °FClear.17 mph83%29.95 "Hg10 mi
5:30 am73 °FClear.15 mph78%29.95 "Hg10 mi
5:00 am73 °FClear.18 mph78%29.98 "Hg10 mi
4:30 am73 °FClear.15 mph78%29.98 "Hg10 mi
4:00 am75 °FClear.16 mph74%29.98 "Hg10 mi
3:30 am75 °FClear.17 mph78%29.98 "Hg10 mi
3:00 am75 °FClear.17 mph78%30.01 "Hg10 mi
2:30 am75 °FClear.16 mph74%30.01 "Hg10 mi
2:00 am77 °FClear.20 mph69%30.01 "Hg10 mi
1:30 am79 °FClear.17 mph65%30.01 "Hg10 mi
1:00 am82 °FClear.16 mph40%30.04 "Hg10 mi
12:30 am81 °FClear.17 mph54%30.01 "Hg10 mi
12:00 am81 °FClear.18 mph54%30.01 "Hg10 mi
11:30 pm
Fri, Jun 23
79 °FPassing clouds.16 mph61%30.01 "HgN/A
11:00 pm79 °FClear.20 mph65%30.01 "Hg10 mi
Weather by CustomWeather, © 2017

See weather overviewHow to use our weather pages